Content
SEND FEEDBACK

Daily
Averages
Monthly
Summary
The Bahamas

NASSAU, THE BAHAMAS


Home > Caribbean > The Bahamas
Elevation: 23 feet     Latitude: 25 03N     Longitude: 077 28W

WEATHER
 
SELECT A DAY
Number of Records: 163,648;   Date Range: 6/30/96 - 12/16/14
 
SHARE

PRINT THIS DATA

[ ← Previous Day ]
WEATHER ALMANAC - FEBRUARY 4, 2013
[ Next Day → ]
[ °C ]   °F
Weather ElementAverageHighLow
Temperature65.7 °F76 °F (4:00 pm) (10:00 pm)
Dewpoint50.4 °F57.2 °F (11:00 pm) (7:00 pm)
Humidity56 %77 % (11:00 pm)39 % (4:00 pm)
Wind Speed8.5 mph94.4 mph (7:00 am)
Weather ElementAverage
Visibility6.7 mi
Wind DirectionENE (69 °)

Weather ElementTotal
Precipitation---
Heating Degree Days27 (Base 65)
Averaged from 22 records on February 4, 2013
WEATHER CONDITIONS BREAKOUT
WIND DIRECTION BREAKOUT
WEATHER BY HOUR - FEBRUARY 4, 2013
[ °C ]   °F
Local TimeTemperatureDewpointHumidityBarometerVisibilityWind DirectionWind SpeedGust SpeedPrecipitationEventsConditions
1:00 AM66.2 °F50.0 °F56 %30.08 in6.2 miNNE (20°)4.6 mphPartly Cloudy
6:00 AM66.2 °F50.0 °F56 %30.09 in6.2 miNNE (30°)6.9 mphPartly Cloudy
7:00 AM48.0 °F30.10 in9.0 miNorth (10°)94.4 mphPartly Cloudy
7:00 AM64.4 °F48.2 °F56 %30.10 in6.2 miNNW (330°)3.5 mphScattered Clouds
8:00 AM68.0 °F51.8 °F56 %30.11 in6.2 miNNE (20°)4.6 mphMostly Cloudy
9:00 AM68.0 °F53.6 °F60 %30.14 in6.2 miNNE (30°)5.8 mphMostly Cloudy
10:00 AM71.6 °F53.6 °F53 %30.14 in6.2 miNorth (360°)9.2 mphMostly Cloudy
11:00 AM69.8 °F53.6 °F56 %30.14 in6.2 miNE (40°)8.1 mphMostly Cloudy
12:00 PM69.8 °F53.6 °F56 %30.12 in6.2 miNorth (10°)6.9 mphMostly Cloudy
1:00 PM72.0 °F53.0 °F40 %30.09 in9.0 miNE (50°)8.1 mphMostly Cloudy
1:00 PM71.6 °F53.6 °F53 %30.09 in6.2 miNE (50°)8.1 mphMostly Cloudy
2:00 PM71.6 °F53.6 °F53 %30.05 in6.2 miENE (60°)5.8 mphMostly Cloudy
3:00 PM71.6 °F51.8 °F50 %30.05 in6.2 miENE (70°)4.6 mphPartly Cloudy
4:00 PM76.0 °F56.0 °F39 %30.05 in9.0 miESE (120°)4.6 mphScattered Clouds
4:00 PM75.2 °F55.4 °F50 %30.05 in6.2 miESE (120°)4.6 mphPartly Cloudy
5:00 PM71.6 °F51.8 °F50 %30.05 in6.2 miSE (130°)8.1 mphPartly Cloudy
7:00 PM68.0 °F53.6 °F60 %30.07 in6.2 miCalmPartly Cloudy
8:00 PM66.2 °F53.6 °F64 %30.09 in6.2 miCalmScattered Clouds
9:00 PM64.4 °F53.6 °F68 %30.10 in6.2 miCalmScattered Clouds
10:00 PM63.0 °F54.0 °F66 %30.10 in9.0 miCalmPartly Cloudy
10:00 PM0.0 °F0.0 °F6.2 miCalmScattered Clouds
11:00 PM64.4 °F57.2 °F77 %30.10 in6.2 miCalmPartly Cloudy
Hourly data recorded from MYNN, located miles away from Nassau, The Bahamas







STORIES FROM OUR PARTNERS